User: anonymous   Login
Location: Newark
(12.4436°N, 0.6167°W)
Time: 12:18:24
(UTC+00:00)
Language:

Tiros 1 despin weight - Orbit

View from above orbital plane
View from above orbital plane
View from above satellite
View from above satellite

Ground track
Ground track

The orbit data is extracted from the following two-line orbital elements,

1   115U 60002D   19340.69080072 -.00000078  00000-0  17953-4 0  9999
2   115  48.1657 125.9071 0034286 115.6868 244.7592 14.83515397184207
Epoch (UTC): 06 December 2019 16:34:45
Eccentricity: 0.0034286
inclination: 48.1657°
perigee height: 594 km
apogee height: 642 km
right ascension of ascending node: 125.9071°
argument of perigee: 115.6868°
revolutions per day: 14.83515397
mean anomaly at epoch: 244.7592°
orbit number at epoch: 18420

The dashed part of the orbit path shows where the satellite is in the earth's shadow,  

DLR